Wind_Speed
15 15 14 14 13 13 13 12 12 12 11 11 10 10 9 8 7 7 6 6 6 5 5 5 4 4 3 3 3 3 3 3 3 3 4 4 4 4 4 5 5 6 6
16 16 16 15 15 14 14 13 13 13 12 12 11 10 10 9 8 7 7 7 6 6 6 5 4 4 4 4 3 3 2 2 2 2 3 3 3 3 3 4 4 4 5
18 18 17 17 16 16 15 15 14 14 13 13 12 11 11 10 9 9 8 7 7 6 6 6 5 5 4 4 4 3 3 2 2 2 2 2 2 2 2 2 3 3 4
20 19 19 18 18 18 17 16 15 15 15 14 13 13 12 11 10 10 9 8 7 7 6 6 6 5 5 5 4 4 3 2 2 1 2 1 1 1 1 1 2 2 3
22 21 21 20 20 19 19 18 17 16 16 15 15 14 13 13 12 11 10 9 8 7 7 7 7 6 6 6 5 4 4 3 2 2 1 1 1 0 0 1 1 2 3
23 23 23 22 22 21 21 20 19 18 17 17 16 15 14 14 13 13 11 11 10 9 8 8 8 7 7 7 6 6 6 5 4 3 2 2 2 1 1 1 2 2 3
25 25 24 24 23 23 22 22 21 20 19 18 17 16 16 15 15 14 13 12 12 11 10 9 8 8 8 7 7 6 6 6 5 4 4 3 3 3 2 2 3 3 3
27 27 26 26 25 24 24 23 23 22 21 20 19 18 17 17 16 15 15 14 13 12 11 11 10 9 9 8 8 7 7 6 6 6 5 5 4 4 4 4 4 4 4
29 29 28 27 26 26 25 25 24 23 23 22 21 20 19 18 17 16 16 15 14 13 12 12 11 10 10 9 8 8 8 7 6 6 6 6 6 5 5 5 5 5 6
31 31 29 29 28 27 27 26 26 25 24 23 22 21 21 20 19 18 17 16 15 15 14 13 12 11 11 10 9 9 8 8 8 8 7 7 7 6 6 6 6 6 6
33 32 31 30 30 29 28 28 27 26 26 25 24 23 22 21 21 20 19 17 16 16 15 14 13 13 12 11 10 10 9 9 9 9 9 8 8 7 7 7 7 7 8
35 34 33 32 31 31 30 29 29 28 27 26 25 25 24 23 22 21 20 19 17 17 16 16 15 14 13 12 12 11 10 9 9 9 9 9 9 8 8 8 8 8 9
37 37 35 34 33 33 32 31 30 29 28 27 27 26 25 24 23 23 21 20 19 18 17 17 16 15 15 14 13 12 12 11 10 10 10 10 10 10 10 10 10 10 10
40 39 38 36 35 34 33 33 32 31 30 29 28 27 27 26 25 24 23 22 21 20 19 18 17 16 16 15 14 14 13 12 12 12 12 12 11 11 11 12 12 12 12
43 42 40 39 38 36 35 34 33 32 31 30 30 29 28 27 27 26 25 24 22 21 20 20 19 18 17 17 16 15 14 14 13 12 12 12 12 12 12 12 13 13 14
45 44 42 41 40 38 37 36 34 33 33 32 31 30 29 29 28 28 27 26 24 23 22 21 20 20 19 18 17 17 16 15 14 14 14 14 13 14 14 14 14 14 15
46 45 44 44 42 41 39 38 36 35 34 34 33 32 31 31 29 29 28 27 26 24 24 23 22 21 20 19 19 18 17 17 16 16 15 15 15 16 16 16 16 16 16
47 46 45 45 44 43 41 40 38 37 36 35 34 34 33 33 32 31 29 28 27 26 25 24 24 22 21 21 20 19 19 18 18 18 17 16 17 17 17 17 18 18 18
48 47 46 47 46 45 43 42 41 39 37 37 36 35 34 34 34 33 31 30 28 27 27 26 25 24 24 23 22 21 21 20 20 20 19 19 18 19 19 19 19 20 20
48 48 47 48 48 47 45 44 43 41 39 39 38 37 36 35 35 34 33 32 30 29 29 28 27 26 26 25 24 23 23 22 22 22 21 21 21 21 21 21 21 22 22
50 48 49 48 48 48 47 46 44 43 41 40 40 39 38 37 36 36 35 34 32 31 30 29 29 28 27 27 26 25 25 24 24 24 24 23 23 23 23 23 23 23 23
51 50 50 49 49 49 48 47 46 44 43 42 41 40 39 38 38 38 37 36 35 33 32 32 31 30 29 29 28 28 27 26 26 26 26 26 25 26 26 26 26 25 26
53 51 51 50 50 50 49 48 48 46 45 44 41 41 41 41 40 40 39 38 37 36 35 34 33 32 31 30 30 29 28 28 27 27 27 27 27 27 28 27 27 27 27
53 52 52 51 51 51 51 50 49 47 46 45 44 42 42 43 43 42 41 40 39 38 37 36 35 34 33 32 32 31 30 30 29 29 29 29 29 29 29 29 29 29 29
53 53 53 52 52 52 52 51 50 48 48 47 46 44 43 43 43 42 41 41 41 40 39 37 37 36 35 34 33 33 32 32 32 32 31 31 31 31 31 31 31 32 32
52 53 53 53 52 52 52 52 51 50 49 48 47 47 45 45 44 44 43 42 41 40 40 40 39 39 38 37 36 35 34 34 33 33 34 34 34 33 33 34 34 34 34
Wind_Direction
228 229 229 228 226 222 219 219 219 215 214 212 209 208 208 207 205 205 205 205 203 199 194 189 184 184 178 171 160 135 113 107 102 94 91 86 84 84 79 72 65 61 58
231 230 229 228 226 224 222 220 220 219 218 216 214 212 212 211 210 211 210 210 208 205 202 198 194 192 185 179 174 158 138 122 111 100 98 93 85 84 77 71 63 58 50
234 233 232 228 227 226 225 221 222 222 220 218 216 215 215 214 213 215 215 214 210 208 207 205 202 199 190 185 182 177 166 152 133 112 102 101 94 87 78 66 57 48 40
235 234 234 231 229 228 228 225 224 225 224 222 220 218 216 217 218 219 219 217 215 210 208 208 205 203 200 194 193 196 192 185 175 143 120 113 105 89 78 56 45 35 26
237 236 235 233 231 230 231 231 228 227 227 225 224 222 220 219 222 223 223 221 220 217 215 211 210 210 210 209 208 212 216 214 212 205 185 181 211 234 15 3 5 4 1
237 236 235 234 233 232 232 233 232 231 229 228 227 226 225 224 225 226 225 226 225 222 221 219 217 219 218 219 220 224 228 230 228 230 229 232 242 250 266 302 320 333 343
237 236 236 235 235 233 233 233 234 233 231 230 230 230 228 228 228 229 228 228 227 226 226 226 225 226 226 226 226 228 230 233 234 238 245 252 253 257 265 282 297 304 318
238 237 236 235 235 234 234 234 234 234 233 232 232 232 231 230 230 230 230 230 229 229 230 230 229 230 229 230 231 233 235 240 241 246 254 256 257 262 268 275 284 291 299
238 236 236 235 235 234 235 235 234 234 235 233 232 232 232 231 231 231 231 231 231 231 232 231 231 232 232 233 234 236 239 243 247 253 255 259 263 265 266 273 281 289 293
238 236 235 234 235 234 234 235 234 234 234 233 232 232 232 232 232 231 231 232 232 232 233 234 233 233 235 236 238 239 244 246 250 253 256 260 264 265 267 272 279 284 290
237 236 235 234 234 234 234 234 234 234 234 233 232 233 233 233 233 232 232 232 233 234 234 236 236 237 239 240 241 243 246 250 253 255 257 260 263 266 268 273 277 283 287
236 235 235 235 234 234 233 233 234 235 235 234 233 233 233 233 233 232 233 233 234 234 236 237 238 239 241 242 243 243 247 250 254 257 259 260 262 265 270 274 277 283 289
236 235 235 235 234 234 234 234 234 235 235 234 234 233 232 232 232 232 234 236 235 235 236 238 239 240 242 244 246 246 247 250 254 258 260 261 264 267 271 274 278 283 289
236 236 236 236 234 234 234 234 235 235 234 234 233 233 233 233 233 233 234 237 237 237 238 239 240 242 243 245 247 248 249 252 255 258 259 261 264 268 272 273 277 281 284
236 236 236 236 235 233 233 234 234 234 233 233 233 233 234 234 235 234 235 237 238 238 239 240 240 242 244 246 246 248 250 253 256 258 259 262 266 269 272 276 279 282 284
235 235 235 235 234 233 233 233 233 233 232 232 232 233 234 234 234 234 235 238 238 238 239 241 242 243 244 246 248 249 252 255 256 258 261 264 267 271 274 277 279 283 285
235 235 235 234 234 234 233 233 233 233 232 233 232 233 234 235 234 235 236 236 238 238 239 240 242 243 245 246 248 251 254 256 257 259 262 264 267 271 275 277 279 282 285
234 234 234 233 233 234 233 233 233 233 234 234 232 233 235 236 236 236 236 236 237 238 239 240 243 244 246 248 250 253 255 257 259 261 262 265 268 271 274 277 279 281 284
233 233 233 232 231 233 233 232 233 233 234 234 234 234 235 236 236 235 235 235 237 239 240 241 243 245 247 249 251 254 256 259 261 263 264 266 269 272 275 277 279 282 284
232 232 232 231 230 231 232 233 233 234 235 235 235 235 236 235 236 236 235 235 236 239 241 243 244 246 248 251 252 255 257 259 261 262 264 267 269 272 275 277 279 281 283
230 231 230 230 230 230 231 232 233 234 234 235 236 236 235 235 236 236 236 236 237 239 242 244 245 246 249 251 253 255 257 259 261 262 265 268 271 273 276 277 278 280 282
229 230 230 230 230 230 230 232 233 234 234 235 236 236 236 236 237 237 237 237 238 240 242 245 246 247 249 251 253 256 257 259 260 262 264 267 271 273 276 277 279 280 281
229 229 230 231 230 230 230 232 233 233 234 235 236 236 236 237 237 238 238 238 239 242 244 246 248 249 250 252 253 256 257 259 261 262 264 267 270 272 275 278 279 280 281
229 229 229 231 231 230 230 231 232 233 233 234 236 236 237 237 237 238 238 239 240 242 244 246 248 249 250 252 253 255 257 259 261 262 264 267 270 272 275 276 278 279 281
229 229 229 230 232 232 231 231 231 232 234 234 236 236 236 236 236 237 239 240 242 243 244 246 249 250 250 252 253 255 257 259 261 263 264 266 269 271 273 275 277 278 280
229 228 228 228 230 231 231 231 232 233 234 235 237 238 236 237 238 238 239 241 242 244 246 247 249 250 251 252 253 255 258 260 262 264 266 267 268 270 272 274 276 278 280
Height
5846 5847 5848 5850 5851 5853 5854 5855 5856 5857 5858 5859 5860 5861 5862 5863 5864 5864 5865 5865 5866 5866 5867 5867 5868 5868 5869 5869 5870 5870 5870 5871 5871 5871 5871 5872 5872 5872 5872 5872 5872 5872 5872
5844 5845 5846 5848 5850 5851 5853 5854 5855 5856 5857 5858 5859 5860 5861 5862 5863 5864 5864 5865 5866 5866 5867 5867 5868 5868 5869 5869 5870 5870 5871 5871 5871 5872 5872 5872 5872 5873 5873 5873 5873 5873 5873
5841 5843 5844 5846 5848 5849 5851 5852 5854 5855 5856 5857 5858 5859 5860 5861 5862 5863 5864 5865 5865 5866 5866 5867 5868 5868 5869 5869 5870 5870 5871 5871 5872 5872 5872 5873 5873 5873 5873 5873 5873 5873 5873
5838 5840 5842 5844 5845 5847 5849 5850 5852 5853 5854 5855 5857 5858 5859 5860 5861 5862 5863 5864 5865 5865 5866 5867 5867 5868 5869 5869 5870 5870 5871 5871 5872 5872 5873 5873 5873 5873 5873 5874 5874 5874 5873
5835 5837 5839 5841 5842 5844 5846 5848 5849 5851 5852 5853 5855 5856 5857 5859 5860 5861 5862 5863 5864 5864 5865 5866 5867 5867 5868 5869 5869 5870 5871 5871 5872 5872 5873 5873 5873 5873 5873 5874 5874 5874 5874
5832 5834 5835 5837 5839 5841 5843 5845 5847 5848 5850 5851 5853 5854 5855 5857 5858 5859 5860 5861 5863 5864 5864 5865 5866 5867 5867 5868 5869 5869 5870 5871 5871 5872 5872 5873 5873 5873 5873 5874 5874 5874 5874
5828 5830 5832 5834 5836 5838 5840 5842 5844 5845 5847 5849 5850 5852 5853 5855 5856 5857 5859 5860 5861 5862 5863 5864 5865 5866 5867 5867 5868 5868 5869 5870 5871 5871 5872 5872 5873 5873 5873 5873 5873 5873 5873
5824 5826 5828 5830 5832 5834 5836 5838 5840 5842 5844 5846 5848 5849 5851 5852 5854 5855 5857 5858 5859 5860 5862 5863 5864 5865 5865 5866 5867 5867 5868 5869 5870 5871 5871 5872 5872 5872 5873 5873 5873 5873 5873
5818 5821 5823 5825 5828 5830 5832 5834 5836 5838 5840 5842 5844 5846 5848 5850 5851 5853 5855 5856 5857 5859 5860 5861 5862 5863 5864 5865 5866 5866 5867 5868 5869 5870 5870 5870 5871 5871 5871 5872 5872 5872 5872
5813 5816 5818 5821 5823 5825 5827 5830 5832 5834 5836 5839 5841 5843 5845 5847 5848 5850 5852 5853 5855 5857 5858 5859 5860 5861 5862 5863 5864 5865 5866 5867 5868 5868 5869 5869 5870 5870 5870 5871 5871 5871 5871
5807 5810 5813 5815 5818 5820 5823 5825 5828 5830 5832 5835 5837 5839 5841 5844 5845 5847 5849 5851 5853 5854 5855 5857 5858 5859 5861 5862 5862 5863 5864 5865 5866 5866 5867 5867 5868 5869 5869 5869 5869 5869 5869
5800 5803 5806 5809 5812 5815 5817 5820 5823 5825 5828 5830 5833 5835 5838 5840 5842 5844 5846 5848 5850 5851 5853 5854 5856 5857 5859 5860 5860 5861 5863 5863 5864 5865 5865 5866 5866 5867 5867 5868 5868 5868 5868
5793 5796 5799 5803 5806 5809 5811 5814 5817 5820 5823 5826 5828 5831 5833 5836 5838 5841 5843 5844 5846 5848 5850 5852 5853 5855 5856 5857 5858 5859 5860 5861 5862 5863 5863 5864 5864 5865 5865 5866 5866 5866 5866
5785 5788 5792 5795 5799 5802 5805 5808 5811 5814 5818 5820 5823 5826 5829 5832 5834 5837 5839 5841 5843 5845 5847 5849 5850 5852 5853 5855 5856 5857 5858 5859 5860 5860 5861 5861 5862 5863 5863 5864 5864 5864 5864
5776 5780 5784 5788 5791 5795 5798 5802 5805 5808 5812 5815 5818 5821 5824 5827 5830 5832 5835 5837 5839 5841 5843 5845 5847 5849 5850 5852 5853 5854 5855 5856 5857 5858 5858 5859 5860 5860 5861 5861 5861 5861 5861
5766 5770 5775 5779 5783 5787 5791 5795 5798 5802 5805 5809 5812 5816 5819 5822 5825 5827 5830 5832 5835 5837 5839 5841 5843 5845 5847 5848 5849 5851 5852 5853 5854 5855 5855 5856 5857 5857 5858 5858 5858 5858 5858
5755 5760 5766 5770 5775 5779 5783 5787 5791 5795 5799 5802 5806 5809 5813 5816 5819 5822 5825 5827 5830 5832 5835 5837 5839 5841 5843 5844 5846 5847 5848 5850 5851 5851 5852 5853 5854 5854 5855 5855 5855 5855 5855
5745 5750 5756 5761 5766 5770 5775 5780 5784 5788 5792 5796 5799 5803 5807 5810 5813 5816 5819 5822 5825 5828 5830 5833 5835 5837 5839 5840 5842 5843 5845 5846 5847 5848 5849 5849 5850 5850 5851 5851 5851 5851 5851
5735 5740 5746 5751 5756 5761 5766 5771 5776 5780 5784 5788 5792 5796 5800 5803 5806 5809 5813 5816 5819 5822 5825 5828 5830 5832 5834 5836 5838 5839 5840 5842 5843 5844 5845 5845 5846 5846 5847 5847 5847 5847 5847
5724 5730 5735 5741 5746 5752 5757 5762 5767 5772 5777 5781 5785 5788 5792 5795 5799 5803 5807 5810 5813 5817 5819 5822 5825 5827 5829 5831 5833 5834 5836 5837 5838 5839 5840 5841 5842 5842 5842 5842 5842 5842 5842
5713 5719 5725 5731 5737 5743 5748 5754 5759 5764 5769 5773 5777 5781 5784 5788 5792 5796 5800 5804 5807 5810 5813 5816 5819 5821 5823 5826 5828 5829 5831 5832 5833 5834 5835 5836 5837 5837 5837 5837 5837 5837 5837
5702 5709 5715 5721 5727 5733 5739 5745 5750 5755 5760 5765 5768 5772 5777 5781 5785 5789 5793 5797 5800 5804 5807 5810 5813 5815 5817 5820 5822 5823 5825 5827 5828 5829 5830 5831 5831 5831 5832 5832 5832 5832 5831
5691 5698 5705 5711 5717 5723 5730 5735 5740 5746 5751 5756 5760 5764 5768 5772 5777 5781 5785 5789 5793 5797 5800 5803 5806 5809 5811 5813 5815 5817 5819 5821 5822 5823 5824 5824 5825 5825 5826 5826 5826 5825 5825
5680 5688 5695 5701 5707 5714 5720 5726 5731 5737 5742 5748 5752 5756 5760 5764 5769 5773 5777 5782 5786 5789 5792 5796 5799 5801 5804 5806 5808 5810 5812 5814 5815 5817 5818 5818 5818 5819 5819 5819 5819 5819 5819
5670 5677 5684 5691 5697 5704 5709 5715 5720 5726 5732 5738 5743 5747 5751 5756 5760 5765 5769 5774 5778 5781 5785 5788 5791 5794 5796 5799 5801 5803 5805 5806 5808 5809 5810 5811 5812 5812 5812 5812 5812 5812 5811
5658 5666 5673 5680 5686 5693 5699 5705 5710 5716 5722 5727 5732 5737 5742 5747 5751 5756 5761 5765 5769 5773 5776 5780 5783 5786 5788 5791 5793 5795 5797 5798 5800 5801 5802 5803 5804 5804 5804 5805 5804 5804 5804